Regional Weather Roundup
Issued by NWS

Home | Current Version | Previous Version | Graphics & Text | Print | Product List | Glossary On
Versions: 1 2 3 4 5 6 7 8 9 10 11 12 13 14 15 16 17 18 19 20 21 22 23 24 25 26 27 28 29 30 31 32 33 34 35 36 37 38 39 40 41 42 43 44 45 46 47 48 49 50
759
ASUS44 KJAN 290110
RWRMS

MISSISSIPPI HOURLY WEATHER ROUNDUP
NATIONAL WEATHER SERVICE JACKSON MS
700 PM CST FRI NOV 28 2014

NOTE: "FAIR: INDICATES FEW OR NO CLOUDS BELOW 12,000 FEET WITH NO
SIGNIFICANT WEATHER AND/OR OBSTRUCTIONS TO VISIBILITY.

MSZ001>002-007>008-010>013-018>021-025>028-034>036-290200-
NORTHWEST MISSISSIPPI

CITY           SKY/WX    TMP DP  RH WIND       PRES   REMARKS
CLARKSDALE     FAIR      46  32  57 SE9       30.16F
CLEVELAND      FAIR      47  35  63 S10       30.17S
GREENWOOD      CLEAR     46  27  47 S7        30.20F
GREENVILLE     CLEAR     47  32  56 S12       30.16F
GRENADA        FAIR      45  30  57 CALM      30.20S
OXFORD         FAIR      45  28  53 SE8       30.19F
TUNICA         CLEAR     43  32  65 S9        30.15F
$$

MSZ003>006-009-014>017-022>024-029>033-037>039-290200-
NORTHEAST MISSISSIPPI

CITY           SKY/WX    TMP DP  RH WIND       PRES   REMARKS
COLUMBUS AFB   CLEAR     38  28  68 SE6       30.24F WCI  34
CORINTH        FAIR      43  27  52 S9        30.19S
GOLDN TRIANGLE CLEAR     45  25  45 S9        30.24F
STARKVILLE     FAIR      43  30  61 SE5       30.24S
TUPELO         CLEAR     43  28  55 S9        30.21F
$$

MSZ040-058-290200-
CENTRAL MISSISSIPPI

CITY           SKY/WX    TMP DP  RH WIND       PRES   REMARKS
JACKSON INTL   CLEAR     45  30  55 S7        30.23F
JACKSON HAWKNS CLEAR     48  28  46 S6        30.23F
MERIDIAN KEY   CLEAR     39  31  72 CALM      30.27S
MERIDIAN NAS   CLEAR     46  28  49 CALM      30.28R
RAYMOND        FAIR      39  36  87 MISG      30.23S
VICKSBURG      CLEAR     49  32  52 S8        30.22S
$$

MSZ059>079-290200-
SOUTH MISSISSIPPI

CITY           SKY/WX    TMP DP  RH WIND       PRES   REMARKS
BROOKHAVEN     FAIR      46  32  57 CALM      30.26F
HATTIESBURG    CLEAR     44  36  73 CALM      30.29S
MCCOMB         CLEAR     47  29  49 SE5       30.26S
NATCHEZ        CLEAR     48  30  49 S8        30.23S
PINE BELT      CLEAR     39  32  75 S3        30.28S
$$

MSZ080>082-290200-
COASTAL MISSISSIPPI

CITY           SKY/WX    TMP DP  RH WIND       PRES   REMARKS
BAY ST LOUIS   CLEAR     39  36  87 CALM      30.23
BILOXI         CLEAR     51  35  53 S5        30.30F
PASCAGOULA     CLEAR     39  35  86 CALM      30.31S
GULFPORT       CLEAR     43  37  79 CALM      30.30F
$$



USA.gov is the U.S. government's official web portal to all federal, state and local government web resources and services.